Location: New Frontier Mobile Home Park
(32.8448°N, 116.9675°W)
Time: 23:11:27
(UTC+00:00)

Hubble Space Telescope - Pass Details

Date: 14 July 2020
Orbit: 536 x 540 km, 28.5° (Epoch: 05 August)

Event Time Altitude Azimuth Distance (km) Brightness Sun altitude
Rises 04:53:14 0° 265° (W) 2,670 4.9 -20.6°
Reaches altitude 10° 04:55:36 10° 258° (WSW) 1,780 3.8 -20.9°
Enters shadow 04:58:44 35° 214° (SW) 867 1.7 -21.4°
